Regional Weather Roundup
Issued by NWS

Home | Current Version | Previous Version | Graphics & Text | Print | Product List | Glossary Off
Versions: 1 2 3 4 5 6 7 8 9 10 11 12 13 14 15 16 17 18 19 20 21 22 23 24 25 26 27 28 29 30 31 32 33 34 35 36 37 38 39 40 41 42 43 44 45 46 47 48 49 50

000
ASUS43 KMKX 110059
RWRWI

WISCONSIN REGIONAL WEATHER ROUNDUP
NATIONAL WEATHER SERVICE MILWAUKEE/SULLIVAN WI
700 PM CST WED FEB 10 2016

NOTE: "FAIR" INDICATES FEW OR NO CLOUDS BELOW 12,000 FEET WITH NO
SIGNIFICANT WEATHER AND/OR OBSTRUCTIONS TO VISIBILITY.

WIZ001-002-006>008-014>016-023>028-110200-
NORTHWEST WISCONSIN

CITY           SKY/WX    TMP DP  RH WIND       PRES   REMARKS
SUPERIOR ARPT  PTCLDY     8  -6  52 N7        30.21R WCI  -4
ASHLAND        CLEAR     -3  -6  87 CALM      30.19R
HAYWARD        CLEAR      3  -5  69 CALM      30.15R
SIREN          CLEAR      1  -7  71 CALM      30.19R
CUMBERLAND     CLEAR      5  -6  61 NW6       30.14R WCI  -6
RICE LAKE      CLEAR      7  -4  62 NW3       30.16R
CHETEK         CLEAR      3  -4  73 CALM      30.15R
LADYSMITH      CLEAR      5  -4  67 N5        30.14R WCI  -4
EAU CLAIRE     CLEAR      6  -5  60 NW3       30.16R
MENOMONIE      CLOUDY     7  -4  62 NW7       30.18R WCI  -5
NEW RICHMOND   CLOUDY     5  -5  63 N5        30.18R WCI  -4
OSCEOLA        PTCLDY     7  -3  63 N3        30.22R
$$

WIZ003>005-009-010-017-018-110200-
NORTH CENTRAL WISCONSIN

CITY           SKY/WX    TMP DP  RH WIND       PRES   REMARKS
MANITOWISH WTR CLOUDY     6   0  76 N6        30.06R WCI  -5
ARBOR VITAE    CLOUDY     9   1  68 N7        30.06R WCI  -2
WOODRUFF       CLOUDY     9   1  68 N7        30.06R WCI  -2
RHINELANDER    CLOUDY     6  -5  60 N6        30.06R WCI  -4
EAGLE RIVER    CLOUDY     6  -5  61 NW12      30.05R WCI -10
LAND O LAKES   CLOUDY     6  -2  71 NW10      30.05R WCI  -9
PHILLIPS       CLOUDY     4  -3  71 NW3       30.09R
TOMAHAWK       MOCLDY     5  -4  64 NW7       30.08R WCI  -7
MEDFORD        CLEAR      5  -4  65 N6        30.07R WCI  -6
MERRILL        CLEAR      7  -4  61 N5        30.09R WCI  -2
$$

WIZ029-030-035-036-043>047-110200-
CENTRAL WISCONSIN

CITY           SKY/WX    TMP DP  RH WIND       PRES   REMARKS
WAUSAU         CLEAR      9  -3  58 N8        30.08R WCI  -3
MOSINEE        CLEAR      9  -4  56 NW5       30.09R WCI   0
MARSHFIELD     CLEAR      2  -8  63 NW6       30.08R WCI  -9
STEVENS POINT  CLEAR      7  -5  58 CALM      30.09R
WAUPACA        PTCLDY    12  -5  46 NW6       30.11R WCI   3
WAUTOMA        NOT AVBL
WISC RAPIDS    CLEAR      7  -5  57 W6        30.13R WCI  -3
CAMP DOUGLAS   NOT AVBL
$$

WIZ011>013-019>022-031-037>040-048>050-110200-
NORTHEAST WISCONSIN

CITY           SKY/WX    TMP DP  RH WIND       PRES   REMARKS
ANTIGO         CLEAR      3  -6  66 N8        30.04R WCI -11
SHAWANO        CLEAR     12  -4  48 N3        30.11R
OCONTO         CLEAR      9  -5  54 N3        30.11R
STURGEON BAY   CLEAR      9  -4  56 N12       30.10R WCI  -6
GREEN BAY      CLEAR      7  -7  52 N5        30.10R WCI  -2
MANITOWOC      NOT AVBL
APPLETON       PTCLDY    10  -8  44 NW8       30.07R WCI  -1
CLINTONVILLE   PTCLDY    12  -6  44 N6        30.09R WCI   3
OSHKOSH        PTCLDY     7  -5  57 W5        30.09R WCI  -2
$$

WIZ032>034-041-042-053>061-110200-
SOUTHWEST WISCONSIN

CITY           SKY/WX    TMP DP  RH WIND       PRES   REMARKS
LA CROSSE      PTCLDY     6  -3  66 NW6       30.17R WCI  -4
SPARTA         CLEAR      7  -2  66 CALM      30.14S
VIROQUA        PTCLDY     4  -5  66 NW3       30.09R
BOSCOBEL       PTCLDY     7  -3  64 CALM      30.16R HAZE
PRAIRIE DU CHI CLEAR     11  -3  53 CALM      30.15R
PLATTEVILLE    CLEAR      9   0  66 N3        30.11R
$$

WIZ056-057-062-063-064-067-068-110200-
SOUTH CENTRAL WISCONSIN

CITY           SKY/WX    TMP DP  RH WIND       PRES   REMARKS
REEDSBURG      CLEAR     10  -3  55 N7        30.12R WCI  -1
BARABOO/DELLS  CLEAR      9  -3  57 CALM      30.11R
LONE ROCK      NOT AVBL
MINERAL POINT  MOCLDY    10  -4  52 CALM      30.09R
MADISON        PTCLDY     9  -3  58 NW5       30.11R WCI   1
MIDDLETON      CLEAR      9   0  66 CALM      30.11R
WATERTOWN      CLEAR     10   0  62 CALM      30.10R
MONROE         PTCLDY    12   1  62 N6        30.09R WCI   3
JANESVILLE     CLEAR     12   1  62 CALM      30.11R
$$

WIZ051-052-058>065-066-070>072-110200-
SOUTHEAST WISCONSIN

CITY           SKY/WX    TMP DP  RH WIND       PRES   REMARKS
MILWAUKEE      MOCLDY    12  -2  53 NW6       30.11R WCI   3
WAUKESHA       CLEAR      7  -2  66 W3        30.10R
MILWAUKEE/TIMM CLEAR      9  -4  56 MISG      30.11R
RACINE         CLEAR     11  -3  53 NW5       30.13R WCI   3
BURLINGTON     CLEAR      7  -3  65 CALM      30.11R
KENOSHA        MOCLDY    12   0  58 NW3       30.11R
FOND DU LAC    PTCLDY     7  -4  60 W6        30.09R WCI  -3
SHEBOYGAN      PTCLDY     7  -5  57 W6        30.09R WCI  -3
WEST BEND      PTCLDY     9  -4  56 CALM      30.08S HAZE
JUNEAU         CLEAR      8  -2  64 CALM      30.11R
$$

LSZ147-162-110200-
LAKE SUPERIOR

STATION/POSITION TIME  TEMP    WIND        PRES    WAVE
                       AIR SEA DIR/SP/G            HT/PER
                 (UTC) (F)     (DEG/KT/KT) (MB)    (FT/S)
DEVILS ISLAND    0000   12     330/ 13/ 20 1023.3R
PORT WING        0040    2     150/  3/  3 1022.4S
SAXON HARBOR     0000   10                 1021.3R
$$

LMZ867-665-643>646-110200-
LAKE MICHIGAN

STATION/POSITION TIME  TEMP    WIND        PRES    WAVE
                       AIR SEA DIR/SP/G            HT/PER
                 (UTC) (F)     (DEG/KT/KT) (MB)    (FT/S)
CHAMBERS ISLAND  0000   10     300/ 13/ 21 1018.6R
ALGOMA LAKESHORE 0011          340/  5/  7   N/A
KEWAUNEE LAKESHO 0000   12                 1017.6R
SHEBOYGAN LAKESH 0000   12     300/  7/  9 1020.5R
PORT WASHINGTON  0040   11     290/  4/  6 1020.7R
MILWAUKEE LAKESH 0010   13     320/  6/  8   N/A
KENOSHA   LAKESH 0000   13     330/  8/ 11 1019.6R
$$

TC  - TEMPERATURE IN CELSIUS
VSB - VISIBILITY IN STATUTE MILES
WCI - WIND CHILL INDEX
HX  - HEAT INDEX




USA.gov is the U.S. government's official web portal to all federal, state and local government web resources and services.